Flagstaff, AZ

8:17 AM MST on August 21, 2017 (GMT -0700)
Flagstaff Pulliam

Weather History for KFLG - November, 2014

Change the Weather History Date:

Saturday, November 1, 2014

  Actual Average Record
Temperature  
Mean Temperature 51 °F 42 °F  
Max Temperature 57 °F 56 °F 73 °F (1916)
Min Temperature 44 °F 27 °F 11 °F (1943)
Degree Days  
Heating Degree Days 14 23  
Month to date heating degree days 14 23  
Since 1 July heating degree days 685 906  
Cooling Degree Days 0 0  
Month to date cooling degree days 0 0  
Year to date cooling degree days 109 117  
Growing Degree Days 1 (Base 50)    
Moisture  
Dew Point 41 °F    
Average Humidity 70    
Maximum Humidity 89    
Minimum Humidity 51    
Precipitation  
Precipitation 0.16 in 0.06 in 1.53 in (1987)
Month to date precipitation 0.16 0.06  
Year to date precipitation 16.79 18.29  
Snow  
Snow 0.00 in 0.20 in 1.00 in (1956)
Month to date snowfall 0.0 0.2  
Since 1 July snowfall 0.0 1.7  
Snow Depth 0.00 in    
Sea Level Pressure  
Sea Level Pressure 29.86 in    
Wind  
Wind Speed 19 mph (SSW)    
Max Wind Speed 35 mph    
Max Gust Speed 47 mph    
Visibility 10 miles    
Events Rain    
T = Trace of Precipitation, MM = Missing Value Source: NWS Daily Summary

Daily Weather History Graph

Daily Weather History Graph

Search for Another Location

Airport or City:

Trip Planner

Search our weather history database for the weather conditions in past years. The results will help you decide how hot, cold, wet, or windy it might be!

Date:

Astronomy

Nov. 01, 2014 Rise Set
Actual Time 6:47 AM MST 5:32 PM MST
Civil Twilight 6:21 AM MST 5:58 PM MST
Nautical Twilight 5:51 AM MST 6:28 PM MST
Astronomical Twilight 5:22 AM MST 6:57 PM MST
Moon 2:16 PM MST (11/1) 1:00 AM MST (11/1)
Length of Visible Light 11h 36m
Length of Day
10h 44m
Waxing Gibbous, 69% of the Moon is Illuminated
Nov 1
Waxing Gibbous
Nov 6
Full
Nov 14
Last Quarter
Nov 22
New
Nov 29
First Quarter

Hourly Weather History & Observations

Time (MST) Temp. Windchill Dew Point Humidity Pressure Visibility Wind Dir Wind Speed Gust Speed Precip Events Conditions
12:57 AM 54.0 °F - 42.1 °F 64% 29.78 in 10.0 mi SSW 5.8 mph - N/A   Overcast
1:57 AM 54.0 °F - 41.0 °F 62% 29.76 in 10.0 mi SSW 18.4 mph 27.6 mph N/A   Mostly Cloudy
2:57 AM 52.0 °F - 41.0 °F 66% 29.76 in 10.0 mi SSW 19.6 mph 29.9 mph N/A   Partly Cloudy
3:57 AM 52.0 °F - 41.0 °F 66% 29.75 in 10.0 mi SSW 23.0 mph 38.0 mph N/A   Clear
4:57 AM 51.1 °F - 41.0 °F 68% 29.75 in 10.0 mi SSW 25.3 mph 40.3 mph N/A   Clear
5:57 AM 50.0 °F - 41.0 °F 71% 29.79 in 10.0 mi SSW 21.9 mph 29.9 mph N/A   Clear
6:57 AM 48.9 °F - 39.0 °F 69% 29.80 in 10.0 mi SSW 20.7 mph 25.3 mph N/A   Clear
7:57 AM 50.0 °F - 39.0 °F 66% 29.83 in 10.0 mi SSW 21.9 mph 35.7 mph N/A   Clear
8:57 AM 53.1 °F - 37.9 °F 57% 29.82 in 10.0 mi SSW 21.9 mph 34.5 mph N/A   Clear
9:57 AM 54.0 °F - 37.0 °F 53% 29.79 in 10.0 mi SSW 17.3 mph 40.3 mph N/A   Clear
10:57 AM 55.0 °F - 37.0 °F 51% 29.79 in 10.0 mi SSW 27.6 mph 41.4 mph N/A   Clear
11:57 AM 54.0 °F - 41.0 °F 62% 29.79 in 9.0 mi SSW 19.6 mph 33.4 mph N/A   Mostly Cloudy
12:11 PM 55.9 °F - 42.1 °F 60% 30.01 in 7.0 mi SW 28.8 mph 38.0 mph N/A   Mostly Cloudy
12:23 PM 55.9 °F - 42.1 °F 60% 30.01 in 7.0 mi SW 28.8 mph 40.3 mph N/A   Scattered Clouds
12:57 PM 54.0 °F - 42.1 °F 64% 29.78 in 10.0 mi SSW 23.0 mph 43.7 mph N/A   Mostly Cloudy
1:10 PM 54.0 °F - 42.1 °F 64% 30.00 in 10.0 mi SW 25.3 mph 31.1 mph N/A   Mostly Cloudy
1:19 PM 54.0 °F - 42.1 °F 64% 30.00 in 10.0 mi SW 24.2 mph 34.5 mph N/A   Mostly Cloudy
1:26 PM 54.0 °F - 41.0 °F 62% 30.00 in 10.0 mi SW 25.3 mph 34.5 mph N/A   Mostly Cloudy
1:40 PM 54.0 °F - 39.9 °F 59% 30.00 in 10.0 mi SW 25.3 mph 38.0 mph N/A   Mostly Cloudy
1:57 PM 57.0 °F - 39.0 °F 51% 29.75 in 10.0 mi SW 24.2 mph 39.1 mph N/A   Scattered Clouds
2:45 PM 53.1 °F - 39.0 °F 59% 29.99 in 10.0 mi South 15.0 mph 28.8 mph N/A   Mostly Cloudy
2:57 PM 52.0 °F - 39.9 °F 63% 29.77 in 10.0 mi SSW 16.1 mph 33.4 mph 0.00 in Rain Light Rain
3:57 PM 50.0 °F - 44.1 °F 80% 29.78 in 10.0 mi SSW 13.8 mph 24.2 mph 0.03 in   Mostly Cloudy
4:57 PM 51.1 °F - 42.1 °F 71% 29.78 in 10.0 mi SSW 15.0 mph 23.0 mph N/A   Mostly Cloudy
5:57 PM 48.9 °F - 42.1 °F 77% 29.80 in 10.0 mi SW 19.6 mph 31.1 mph 0.00 in   Mostly Cloudy
6:33 PM 48.0 °F - 42.1 °F 80% 30.00 in 10.0 mi SSW 15.0 mph 20.7 mph 0.00 in Rain Light Rain
6:57 PM 46.9 °F - 42.1 °F 83% 29.82 in 10.0 mi SSW 16.1 mph - 0.00 in   Scattered Clouds
7:57 PM 46.9 °F - 39.9 °F 77% 29.81 in 10.0 mi SSW 16.1 mph 25.3 mph N/A   Mostly Cloudy
8:05 PM 46.9 °F - 39.0 °F 74% 30.00 in 10.0 mi SSW 17.3 mph 25.3 mph N/A   Mostly Cloudy
8:57 PM 46.0 °F 41.0 °F 41.0 °F 83% 29.80 in 10.0 mi SW 10.4 mph - 0.02 in Rain Light Rain
9:10 PM 46.0 °F 42.5 °F 42.1 °F 86% 29.99 in 10.0 mi WSW 6.9 mph - 0.00 in Rain Light Rain
9:48 PM 45.0 °F 39.3 °F 42.1 °F 90% 29.99 in 8.0 mi South 11.5 mph - 0.03 in Rain Light Rain
9:57 PM 45.0 °F 37.9 °F 41.0 °F 86% 29.79 in 9.0 mi SSW 16.1 mph 26.5 mph 0.04 in Rain Light Rain
10:41 PM 45.0 °F 37.4 °F 42.1 °F 90% 29.99 in 10.0 mi SSW 18.4 mph 26.5 mph 0.07 in   Overcast
10:55 PM 45.0 °F 37.9 °F 42.1 °F 90% 29.79 in 10.0 mi SSW 16.1 mph 23.0 mph 0.07 in   Overcast
11:05 PM 45.0 °F 38.5 °F 42.1 °F 90% 29.99 in 10.0 mi SSW 13.8 mph 25.3 mph N/A   Overcast
11:49 PM 46.0 °F 39.0 °F 41.0 °F 83% 29.97 in 10.0 mi SW 17.3 mph 34.5 mph 0.00 in   Overcast
11:57 PM 45.0 °F 36.6 °F 42.1 °F 90% 29.77 in 10.0 mi SW 21.9 mph 29.9 mph 0.00 in   Overcast